Lexington Weather

Lexington, Massachusetts, USA

73°F
9/22/2021 1:44pm 
  • Lexington Conditions: Overcast
  • Temperature: 73.0°F / 22.8°CColder 2.4°F than last hour.
  • Dew Point: 68.2°FDecreased 0.2°Fsince last hour.
  • Relative Humidity: 85%Increased 6.0% since last hour.
  • Wind: Wind from SSW SSW 2 mph, 10-min avg: 4 mph, gust: 12 mph
  • Barometer: 30.10 in Steady
  • Visibility: 10 miles
  • Rain Today: 0.00 in
  •   

Regional Weather Roundup
for Boston / Norton, MA

        
000
ASUS41 KBOX 180404
RWRBOX

REGIONAL WEATHER ROUNDUP
NATIONAL WEATHER SERVICE BOSTON/NORTON MA
1200 AM EDT SAT SEP 18 2021

NOTE:  "FAIR" INDICATES FEW OR NO CLOUDS BELOW 12,000 FEET WITH NO 
SIGNIFICANT WEATHER AND/OR OBSTRUCTIONS TO VISIBILITY.

MAZALL-180500-
EASTERN MASSACHUSETTS
  
CITY           SKY/WX    TMP DP  RH WIND       PRES   REMARKS
BOSTON         DRZL/FOG  66  63  90 N8        30.16F VSB 1/2          
BEVERLY        FOG       64  64 100 N3        30.16F VSB 1/2          
LAWRENCE       FOG       63  63 100 NE3       30.18F VSB 1            
BEDFORD        CLOUDY    63  63 100 N3        30.15F FOG              
BLUE HILL      NOT AVBL                                               
NORWOOD        CLOUDY    65  63  93 NW5       30.15F                  
MARSHFIELD     FOG       66  64  94 VRB5      30.14F VSB 1/4          
PLYMOUTH       FOG       66  65  96 N10       30.14F VSB 1/2          
TAUNTON        CLOUDY    64  63  96 VRB3      30.14F FOG              
NEW BEDFORD    FOG       66  65  96 VRB3      30.13F VSB 3/4          
$$

MAZALL-180500-
CAPE COD AND THE ISLANDS
  
CITY           SKY/WX    TMP DP  RH WIND       PRES   REMARKS
FALMOUTH       FOG       68  68 100 NE9       30.12F VSB 1/2          
HYANNIS        CLOUDY    69  69 100 N6        30.11F FOG              
CHATHAM        FOG       68  68 100 VRB3      30.12F VSB 3/4          
PROVINCETOWN   LGT RAIN  66  66 100 NE7       30.14F VSB 1/2          
NANTUCKET      PTCLDY    70  68  93 NE9       30.08F                  
MARTHAS VNYRD  CLOUDY    70  70 100 N8        30.10F                  
$$
 
MAZALL-180500-
CENTRAL AND WESTERN MASSACHUSETTS
  
CITY           SKY/WX    TMP DP  RH WIND       PRES   REMARKS
WORCESTER      FOG       63  63 100 NE6       30.18F VSB 1/4          
FITCHBURG      CLOUDY    64  63  96 CALM      30.18F FOG              
ORANGE         CLOUDY    65  63  93 SE3       30.18F                  
SPRINGFIELD    CLOUDY    66  64  94 E3        30.15F                  
WESTFIELD      CLOUDY    68  66  93 CALM      30.16F                  
NORTH ADAMS    CLOUDY    67  63  87 SW5       30.16F                  
PITTSFIELD     CLOUDY    65  63  93 CALM      30.16F                  
$$
 
RIZALL-180500-
RHODE ISLAND
  
CITY           SKY/WX    TMP DP  RH WIND       PRES   REMARKS
PROVIDENCE     CLOUDY    66  65  96 N9        30.15F                  
NEWPORT        FOG       64  64 100 N7        30.13F VSB 3/4          
BLOCK ISLAND   CLOUDY    65  64  97 NE13      30.12F                  
SMITHFIELD     FOG       63  63 100 N9        30.16F VSB 1/2          
WESTERLY       CLOUDY    64  64 100 N6        30.12F                  
$$
 
CTZALL-180500-
CONNECTICUT
  
CITY           SKY/WX    TMP DP  RH WIND       PRES   REMARKS
BRADLEY INTL   CLOUDY    66  64  93 NE7       30.15F                  
HARTFORD       CLOUDY    69  64  84 NE6       30.14F                  
BRIDGEPORT     PTCLDY    70  66  87 NE10      30.12F                  
DANBURY        CLOUDY    70  65  84 E7        30.16F                  
GROTON         CLOUDY    68  65  90 N9        30.11F                  
NEW HAVEN      CLEAR     70  67  90 NE8       30.13F                  
CHESTER        CLOUDY    66  66 100 NE6       30.14F                  
MERIDEN        CLOUDY    69  64  84 VRB5      30.14F                  
WILLIMANTIC    CLOUDY    65  63  93 N8        30.16F                  
OXFORD         CLOUDY    66  65  96 NE9       30.16F                  
$$

MEZ002-015-021-024-NHZ003-005-008-011-012-014-VTZ005-008-180500-
NORTHERN NEW ENGLAND
  
CITY           SKY/WX    TMP DP  RH WIND       PRES   REMARKS
PORTLAND ME    CLOUDY    61  61 100 NW5       30.18F FOG              
BANGOR ME      CLOUDY    63  60  90 S5        30.19F                  
CONCORD NH     CLOUDY    64  63  96 CALM      30.18S                  
MANCHESTER NH  CLOUDY    65  61  87 CALM      30.16F                  
NASHUA NH      CLOUDY    64  64 100 CALM      30.18F                  
PORTSMOUTH NH  FOG       63  62  96 CALM      30.18F VSB 1/4          
JAFFREY NH     FOG       64  64 100 CALM      30.19F VSB 3/4          
KEENE NH       CLOUDY    65  64  97 CALM      30.17F                  
BURLINGTON VT  CLEAR     70  64  81 S9        30.09F                  
MT. WASHINGTON FOG       50  50 100 SW24G30     N/A  VSB 1/16         
$$

NYZ052-076-180500-
EASTERN NEW YORK
  
CITY           SKY/WX    TMP DP  RH WIND       PRES   REMARKS
ALBANY         CLEAR     63  63 100 CALM      30.13F                  
NEW YORK CITY  CLOUDY    73  67  81 NE13      30.11F                  
$$
 
ANZALL-180500-
MARINE OBSERVATIONS
  
STATION/POSITION TIME  TEMP    WIND        PRES    VSBY  WAVE
                       AIR SEA DIR/SP/G                  HT/PER
                 (UTC) (F)     (DEG/KT/KT) (MB)    (MI)  (FT/S)
BOSTON BUOY      0340      67   20/ 10/ 10 1021.3F
BUZZARDS BAY     0300           20/ 14/ 15 1021.3F
NANTUCKET SOUND  0340   71 72   40/ 10/ 12 1019.3F
MASS BAY-STELLWA 0304   65      30/  8/  8 1021.2F  1 7/8  2/ 4
ISLE OF SHOALS   0300   63      60/  5/  6 1021.9F
S OF BLOCK IS    0326      71                N/A           5/ 8
$$

......................KEY.........................
  SKY/WX - SKY CONDITION/PRESENT WEATHER
  TMP    - TEMPERATURE IN FAHRENHEIT
  DWPT   - DEWPOINT IN FAHRENHEIT
  RH     - RELATIVE HUMIDITY IN PERCENT
  WIND   - DIRECTION AND SPEED IN MPH
  PRES   - MEAN SEA LEVEL PRESSURE IN INCHES OF HG
  WCI    - WIND CHILL INDEX
  VSB    - VISIBILITY IN MILES
  HX     - HEAT INDEX
  TC     - TEMPERATURE IN CELSIUS
  VRB    - VARIABLE WIND DIRECTION
  N/A    - NOT AVAILABLE
  
      

Other recent Regional Weather Roundups

Wed Sep 22, 1:04pm

Wed Sep 22, 12:05pm

Wed Sep 22, 11:04am

Wed Sep 22, 10:04am

Wed Sep 22, 9:04am

Wed Sep 22, 8:04am

Wed Sep 22, 7:04am

Wed Sep 22, 6:04am

Wed Sep 22, 5:04am

Wed Sep 22, 4:04am

Wed Sep 22, 3:04am

Wed Sep 22, 2:04am

Wed Sep 22, 1:04am

Wed Sep 22, 12:04am

Tue Sep 21, 11:04pm

Tue Sep 21, 10:04pm

Tue Sep 21, 9:04pm

Tue Sep 21, 8:04pm

Tue Sep 21, 7:04pm

Tue Sep 21, 6:04pm

Tue Sep 21, 5:04pm

Tue Sep 21, 4:04pm

Tue Sep 21, 3:04pm

Tue Sep 21, 2:04pm

Tue Sep 21, 1:04pm

Tue Sep 21, 12:04pm

Tue Sep 21, 11:04am

Tue Sep 21, 10:04am

Tue Sep 21, 9:04am

Tue Sep 21, 8:04am

Tue Sep 21, 7:04am

Tue Sep 21, 6:04am

Tue Sep 21, 5:04am

Tue Sep 21, 4:04am

Tue Sep 21, 3:04am

Tue Sep 21, 2:04am

Tue Sep 21, 1:04am

Tue Sep 21, 12:04am

Mon Sep 20, 11:04pm

Mon Sep 20, 10:04pm

Mon Sep 20, 9:04pm

Mon Sep 20, 8:04pm

Mon Sep 20, 7:04pm

Mon Sep 20, 6:04pm

Mon Sep 20, 5:04pm

Mon Sep 20, 4:04pm

Mon Sep 20, 3:04pm

Mon Sep 20, 2:04pm

Mon Sep 20, 1:04pm

Mon Sep 20, 12:04pm

Mon Sep 20, 11:04am

Mon Sep 20, 10:04am

Mon Sep 20, 9:04am

Mon Sep 20, 7:04am

Mon Sep 20, 6:04am

Mon Sep 20, 5:04am

Mon Sep 20, 4:04am

Mon Sep 20, 3:04am

Mon Sep 20, 2:04am

Mon Sep 20, 1:04am

Mon Sep 20, 12:04am

Sun Sep 19, 11:04pm

Sun Sep 19, 10:04pm

Sun Sep 19, 9:04pm

Sun Sep 19, 8:04pm

Sun Sep 19, 7:04pm

Sun Sep 19, 6:04pm

Sun Sep 19, 5:04pm

Sun Sep 19, 4:04pm

Sun Sep 19, 3:04pm

Sun Sep 19, 2:05pm

Sun Sep 19, 1:04pm

Sun Sep 19, 12:04pm

Sun Sep 19, 11:04am

Sun Sep 19, 10:05am

Sun Sep 19, 9:04am

Sun Sep 19, 8:04am

Sun Sep 19, 7:04am

Sun Sep 19, 6:04am

Sun Sep 19, 5:04am

Sun Sep 19, 4:04am

Sun Sep 19, 3:04am

Sun Sep 19, 2:04am

Sun Sep 19, 1:04am

Sun Sep 19, 12:04am

Sat Sep 18, 11:05pm

Sat Sep 18, 10:04pm

Sat Sep 18, 9:04pm

Sat Sep 18, 8:04pm

Sat Sep 18, 7:04pm

Sat Sep 18, 6:04pm

Sat Sep 18, 5:04pm

Sat Sep 18, 4:04pm

Sat Sep 18, 3:04pm

Sat Sep 18, 2:04pm

Sat Sep 18, 1:04pm

Sat Sep 18, 12:04pm

Sat Sep 18, 11:04am

Sat Sep 18, 10:04am

Sat Sep 18, 9:04am

Sat Sep 18, 8:04am

Sat Sep 18, 7:04am

Sat Sep 18, 6:04am

Sat Sep 18, 5:04am

Sat Sep 18, 4:04am

Sat Sep 18, 3:04am

Sat Sep 18, 2:04am

Sat Sep 18, 1:04am

Fri Sep 17, 11:04pm

Fri Sep 17, 10:04pm

Fri Sep 17, 9:04pm

Fri Sep 17, 8:04pm

Fri Sep 17, 7:04pm

Fri Sep 17, 6:04pm

Fri Sep 17, 5:04pm

Fri Sep 17, 4:04pm

Fri Sep 17, 3:04pm

Fri Sep 17, 2:04pm

Fri Sep 17, 1:04pm

Fri Sep 17, 12:05pm

Fri Sep 17, 11:04am

Fri Sep 17, 10:04am

Fri Sep 17, 9:04am

Fri Sep 17, 8:04am

Fri Sep 17, 7:04am

Fri Sep 17, 6:04am

Fri Sep 17, 5:04am

Fri Sep 17, 4:04am

Fri Sep 17, 3:04am

Fri Sep 17, 2:04am

Fri Sep 17, 1:04am

Fri Sep 17, 12:04am

Thu Sep 16, 11:04pm

Thu Sep 16, 10:04pm

Thu Sep 16, 9:04pm

Thu Sep 16, 8:04pm

Thu Sep 16, 7:04pm

Thu Sep 16, 6:04pm

Thu Sep 16, 5:04pm

Thu Sep 16, 4:04pm

Thu Sep 16, 3:04pm

Thu Sep 16, 2:04pm

Thu Sep 16, 1:05pm

Thu Sep 16, 12:04pm

Thu Sep 16, 11:05am

Thu Sep 16, 10:05am

Thu Sep 16, 9:04am

Thu Sep 16, 8:04am

Thu Sep 16, 7:04am

Thu Sep 16, 6:04am

Thu Sep 16, 5:04am

Thu Sep 16, 4:04am

Thu Sep 16, 3:04am

Thu Sep 16, 2:04am

Thu Sep 16, 1:04am

Thu Sep 16, 12:04am

Wed Sep 15, 11:04pm

Wed Sep 15, 10:04pm

Wed Sep 15, 9:04pm

Wed Sep 15, 8:04pm

Wed Sep 15, 7:04pm

Wed Sep 15, 6:04pm

Wed Sep 15, 5:05pm

Wed Sep 15, 4:04pm

Wed Sep 15, 3:04pm

Wed Sep 15, 2:04pm

Meta data:

ID: 436fec11-cb73-4b0b-be2c-51636f41a0ad
Link: https://api.weather.gov/products/436fec11-cb73-4b0b-be2c-51636f41a0ad